Location: Newark
(46.7000°N, 60.6000°W)
Time: 09:52:53
(UTC+00:00)

Transit 2A Rocket - Pass Details

Date: 29 October 2020
Orbit: 588 x 915 km, 66.7° (Epoch: 23 November)

Event Time Altitude Azimuth Distance (km) Brightness Sun altitude
Rises 15:05:13 0° 251° (WSW) 3,541 8.5 28.9°
Reaches altitude 10° 15:08:09 10° 262° (W) 2,589 7.8 29.0°
Maximum altitude 15:13:16 28° 320° (NW) 1,609 6.5 29.1°
Drops below altitude 10° 15:18:11 10° 18° (NNE) 2,481 7.2 29.2°
Sets 15:20:57 0° 31° (NNE) 3,368 7.9 29.3°
